Probability
1 2 4 4 4 3 2 3 3 2 1 0 0 0 0 0 0 0 0 0 0 0 0 0 0 0 0 0 0 0 0 0 0 0 0 0 0 0 0 0 0 0 0
3 6 8 8 7 5 3 2 2 2 1 0 0 0 0 0 0 0 0 0 0 0 0 0 0 0 0 0 0 0 0 0 0 0 0 0 0 0 0 0 0 0 0
9 9 12 13 11 8 5 3 2 1 0 0 0 0 0 0 0 0 0 0 0 0 0 0 0 0 0 0 0 0 0 0 0 0 0 0 0 0 0 0 0 0 0
14 13 13 15 15 12 7 4 3 1 0 0 0 0 0 0 0 0 0 0 0 0 0 0 0 0 0 0 0 0 0 0 0 0 0 0 0 0 0 0 0 0 0
17 15 14 16 16 12 7 4 3 1 0 0 0 0 0 0 0 0 0 0 0 0 0 0 0 0 0 0 0 0 0 0 0 0 0 0 0 0 0 0 0 0 0
19 16 15 17 16 10 6 3 1 0 0 0 0 0 0 0 0 0 0 0 0 0 0 0 0 0 0 0 0 0 0 0 0 0 0 0 0 0 0 0 0 0 0
27 24 21 20 17 10 4 2 1 0 0 0 0 0 0 0 0 0 0 0 0 0 0 0 0 0 0 0 0 0 0 0 0 0 0 0 0 0 0 0 0 0 0
41 39 32 25 17 9 5 2 1 0 0 0 0 0 0 0 0 0 0 0 0 0 0 0 0 0 0 0 0 0 0 0 0 0 0 0 0 0 0 0 0 0 0
52 52 47 34 21 12 6 3 1 0 0 0 0 0 0 0 0 0 0 0 0 0 0 0 0 0 0 0 0 0 0 0 0 0 0 0 0 0 0 0 0 0 0
57 57 55 47 33 20 9 3 1 0 0 0 0 0 0 0 0 0 0 0 0 0 0 0 0 0 0 0 0 0 0 0 0 0 0 0 0 0 0 0 0 0 0
57 56 54 51 41 26 14 6 2 1 0 0 0 0 0 0 0 0 0 0 0 0 0 0 0 0 0 0 0 0 0 0 0 0 0 0 0 0 0 0 0 0 0
54 52 49 47 40 28 16 8 3 2 0 0 0 0 0 0 0 0 0 0 0 0 0 0 0 0 0 0 0 0 0 0 0 0 0 0 0 0 0 0 0 0 0
51 49 45 43 38 27 16 10 6 2 0 0 0 0 0 0 0 0 0 0 0 0 0 0 0 0 0 0 0 0 0 0 0 0 0 0 0 0 0 0 0 0 0
48 47 44 42 37 26 17 12 8 4 1 0 0 0 0 0 0 0 0 0 0 0 0 0 0 0 0 0 0 0 0 0 0 0 0 0 0 0 0 0 0 0 0
41 41 41 40 34 24 17 13 9 6 2 0 0 0 0 0 0 0 0 0 0 0 0 0 0 0 0 0 0 0 0 0 0 0 0 0 0 0 0 0 0 0 0
32 33 34 33 28 20 15 12 9 6 2 0 0 0 0 0 0 0 0 0 0 0 0 0 0 0 0 0 0 0 0 0 0 0 0 0 0 0 0 0 0 0 0
20 23 25 25 21 14 11 9 7 4 1 0 0 0 0 0 0 0 0 0 0 0 0 0 0 0 0 0 0 0 0 0 0 0 0 0 0 0 0 0 0 0 0
10 12 16 19 16 11 7 5 4 2 1 0 0 0 0 0 0 0 0 0 0 0 0 0 0 0 0 0 0 0 0 0 0 0 0 0 0 0 0 0 0 0 0
5 7 11 13 13 9 4 2 2 1 1 0 0 0 0 0 0 0 0 0 0 0 0 0 0 0 0 0 0 0 0 0 0 0 0 0 0 0 0 0 0 0 0
4 6 8 10 9 6 3 1 0 1 1 0 0 0 0 0 0 0 0 0 0 0 0 0 0 0 0 0 0 0 0 0 0 0 0 0 0 0 0 0 0 0 0
3 4 6 7 6 5 2 1 0 1 1 0 0 0 0 0 0 0 0 0 0 0 0 0 0 0 0 0 0 0 0 0 0 0 0 0 0 0 0 0 0 0 0
2 3 5 5 5 4 2 0 0 0 0 0 0 0 0 0 0 0 0 0 0 0 0 0 0 0 0 0 0 0 0 0 0 0 0 0 0 0 0 0 0 0 0
3 3 3 4 4 3 1 0 0 0 0 0 0 0 0 0 0 0 0 0 0 0 0 0 0 0 0 0 0 0 0 0 0 0 0 0 0 0 0 0 0 0 0
2 2 2 3 3 2 1 0 1 0 0 0 0 0 0 0 0 0 0 0 0 0 0 0 0 0 0 0 0 0 0 0 0 0 0 0 0 0 0 0 0 0 0
1 1 2 3 2 1 0 0 0 0 0 0 0 0 0 0 0 0 0 0 0 0 0 0 0 0 0 0 0 0 0 0 0 0 0 0 0 0 0 0 0 0 0
1 1 2 3 2 0 0 0 0 0 0 0 0 0 0 0 0 0 0 0 0 0 0 0 0 0 0 0 0 0 0 0 0 0 0 0 0 0 0 0 0 0 0
Wind_Speed
8 10 17 18 17 17 17 17 17 17 17 17 17 16 16 15 14 13 12 12 11 10 9 9 8 8 8 7 8 8 9 10 11 13 14 15 15 15 15 16 15 12 17
13 12 18 18 18 17 17 16 16 16 16 16 16 15 15 14 13 13 12 11 10 10 9 9 8 8 8 8 8 9 9 10 11 13 14 14 15 14 14 15 14 11 16
15 12 15 18 18 17 17 16 16 16 16 15 15 15 14 13 13 12 11 11 10 10 9 9 9 8 8 8 8 9 9 10 11 13 12 8 10 14 14 15 15 15 15
16 11 12 18 17 17 16 16 15 15 15 14 14 13 13 12 12 11 11 10 10 9 9 9 9 8 8 8 9 9 10 11 12 12 7 6 7 13 14 14 15 15 15
14 11 13 19 18 17 16 15 15 14 14 13 13 12 12 11 11 10 10 10 9 9 9 9 9 8 8 8 9 9 10 11 12 10 6 6 6 12 14 14 14 14 14
12 11 13 19 18 17 16 15 15 14 13 13 12 12 11 10 10 10 9 9 8 8 8 8 8 8 8 8 8 9 10 12 10 7 6 6 6 12 14 14 14 14 13
11 9 12 18 18 17 16 15 14 14 13 12 11 11 10 10 9 9 8 8 8 7 7 7 7 7 7 7 7 8 10 12 8 7 6 6 6 11 13 13 13 13 13
12 10 11 17 18 17 16 15 14 13 13 12 11 10 9 9 8 8 7 7 7 6 6 6 6 6 6 6 5 6 9 11 9 8 6 5 7 10 12 12 12 12 12
10 9 8 10 12 16 16 15 14 13 12 11 10 9 9 8 8 8 7 6 6 6 5 5 5 5 5 5 5 6 9 11 8 5 7 4 7 10 12 12 12 12 12
8 7 7 7 7 7 9 14 14 13 12 11 10 9 8 8 7 7 5 5 5 5 5 4 4 4 4 4 4 5 8 9 6 5 4 5 8 11 12 12 12 11 11
9 6 7 7 7 6 6 10 11 12 11 9 7 8 6 2 2 2 4 5 5 4 4 4 3 3 3 3 4 5 7 3 5 4 3 6 9 11 12 12 11 11 11
11 9 7 7 7 6 6 5 3 4 4 3 2 2 2 2 1 1 2 5 5 5 4 4 3 2 3 2 2 4 2 4 4 3 3 8 9 10 11 11 11 11 11
11 10 8 7 7 6 4 4 3 2 3 3 3 3 2 2 1 1 1 1 1 1 0 0 1 1 2 1 1 1 2 3 2 2 3 8 8 9 10 11 11 10 10
10 9 8 7 7 5 4 4 3 3 2 2 2 3 2 2 1 1 1 0 0 1 1 1 1 1 1 1 1 2 2 2 2 2 2 8 8 8 10 10 10 10 10
9 8 7 7 7 5 5 4 4 3 3 3 2 2 3 2 2 2 1 1 1 1 1 1 0 1 1 1 1 2 2 3 2 2 1 6 7 6 8 9 10 10 11
10 8 6 6 6 6 4 4 4 4 3 3 2 3 3 3 3 2 2 1 1 1 1 1 1 1 1 1 1 1 2 2 2 2 1 2 4 5 6 8 9 10 10
10 9 8 7 6 6 5 5 4 4 4 3 2 3 3 4 4 3 2 2 1 1 2 2 2 2 1 1 0 1 1 1 1 2 2 1 1 3 5 7 8 9 10
9 9 8 8 8 7 6 5 4 4 4 3 2 3 4 4 4 4 3 2 1 2 2 2 2 2 1 1 0 0 0 0 0 1 1 1 1 1 3 6 7 8 10
9 9 8 7 8 7 6 5 5 4 4 3 2 2 3 4 4 4 3 2 2 2 2 2 2 1 1 1 1 1 1 1 1 1 1 1 1 1 1 3 6 7 9
8 9 8 7 7 7 6 5 4 4 3 3 2 2 4 3 4 4 3 3 3 3 2 2 3 2 2 1 2 2 2 2 1 1 1 1 1 2 2 3 2 4 7
8 9 9 8 7 7 5 5 4 3 2 2 2 3 3 4 4 4 4 3 3 3 2 3 2 3 3 1 2 2 3 3 2 1 1 1 1 2 2 3 2 2 2
10 9 9 9 8 7 5 4 3 4 3 2 2 2 3 4 4 4 4 3 3 3 3 2 2 2 2 2 2 2 2 2 2 2 1 1 1 1 2 3 3 3 3
8 9 9 8 8 7 7 5 5 4 3 2 2 1 1 3 3 4 5 4 3 3 2 2 2 3 2 2 1 3 3 2 1 2 2 1 1 0 1 1 3 3 3
8 8 8 8 8 8 8 8 8 5 4 4 3 2 2 2 3 4 4 4 4 3 3 2 2 2 3 2 1 2 1 2 2 0 2 1 2 1 1 1 2 2 3
7 7 8 8 8 8 8 8 8 5 3 3 3 3 2 2 2 3 4 4 4 3 3 2 2 2 2 2 2 2 2 2 2 2 1 2 2 1 1 2 2 2 2
6 6 7 8 8 8 8 8 8 7 6 6 4 4 2 1 1 3 3 3 3 3 3 3 3 3 2 2 2 2 2 2 2 2 2 1 1 2 2 2 2 2 2
Wind_Direction
160 160 156 148 141 135 131 128 125 124 123 123 124 126 128 129 130 131 131 130 127 123 117 112 107 103 103 106 112 116 121 126 128 125 125 122 120 119 118 116 113 113 115
149 156 156 150 144 139 135 133 130 128 127 127 127 128 128 129 129 129 128 127 125 121 117 112 108 105 104 106 110 116 121 126 128 126 126 123 122 123 121 120 119 120 119
145 153 154 151 147 142 139 137 135 133 132 130 129 130 130 129 128 127 128 126 124 120 117 114 109 106 105 106 112 117 123 125 126 124 118 114 123 125 126 126 125 123 121
145 147 152 153 149 146 143 141 139 137 136 135 133 133 133 131 130 129 127 124 122 120 116 112 108 105 105 108 113 120 126 126 124 119 109 117 126 129 129 128 126 125 124
143 145 155 154 152 149 146 145 144 142 141 139 138 137 136 135 133 130 128 127 124 121 116 110 107 104 104 110 116 123 130 131 127 118 113 113 118 133 132 130 129 128 127
144 146 157 155 155 152 150 149 149 147 146 145 143 142 141 139 137 134 132 131 127 122 116 111 106 102 102 108 115 124 134 135 123 118 118 123 127 137 136 134 132 130 129
144 147 156 156 157 156 154 153 153 152 151 150 149 148 147 144 142 140 139 137 132 127 121 114 106 99 97 101 114 130 139 137 125 124 125 129 137 141 138 135 134 133 132
148 148 153 158 158 158 157 156 156 157 156 155 154 153 152 150 149 148 147 145 141 136 129 121 112 99 90 91 104 128 139 137 135 135 133 137 147 144 141 137 135 135 136
147 146 149 154 158 161 160 160 160 161 159 159 160 160 159 157 156 158 159 160 157 151 145 136 123 107 92 87 92 119 139 139 134 139 144 143 149 147 144 143 140 139 139
144 146 144 143 145 151 158 163 164 164 163 163 165 168 168 167 167 169 168 178 175 171 165 158 142 125 103 92 93 111 131 129 131 134 133 152 156 154 150 148 146 146 144
154 151 145 142 139 140 150 168 165 166 168 168 171 176 167 139 139 162 185 198 195 192 187 182 163 137 104 84 101 110 112 116 129 129 138 160 164 162 156 154 152 153 152
167 163 155 149 144 144 157 146 135 140 142 134 125 133 112 111 141 179 215 214 212 207 204 200 184 131 93 58 77 100 100 125 130 137 158 167 170 168 163 160 160 160 159
167 166 160 155 148 147 138 131 124 116 115 116 124 121 115 108 92 90 72 308 297 228 93 81 66 81 98 101 94 111 129 129 134 145 165 169 172 172 169 168 168 168 166
166 169 161 157 151 147 137 135 130 125 123 125 130 135 129 126 126 113 111 96 64 62 99 82 81 107 111 129 153 154 151 143 146 141 178 178 178 178 176 176 176 176 174
164 168 165 158 152 147 140 143 140 138 138 136 134 145 147 144 144 128 114 113 121 115 132 133 128 138 115 124 175 175 180 171 160 152 171 189 184 184 184 182 185 187 182
169 169 160 158 156 152 151 147 143 141 136 130 139 150 144 139 135 126 116 119 115 125 132 133 136 131 119 140 202 212 198 174 170 166 168 198 194 186 188 191 193 197 195
170 162 160 163 160 160 153 149 140 138 132 132 139 140 134 131 130 126 120 114 107 114 114 99 92 84 101 137 202 252 227 177 168 174 172 160 188 200 196 201 201 203 203
164 161 165 173 166 163 152 141 132 132 130 131 133 127 125 125 129 123 117 110 106 104 104 106 92 88 78 98 154 295 322 22 76 159 166 164 173 190 211 217 212 208 210
168 162 166 166 164 159 146 133 128 125 123 124 122 117 121 122 125 121 117 111 107 98 96 111 82 92 98 97 122 53 18 5 353 311 242 211 197 200 214 233 226 219 219
169 163 166 157 160 147 131 117 108 105 104 111 119 127 128 125 124 118 111 104 103 99 88 84 88 71 78 85 82 62 28 8 15 356 302 269 232 227 222 224 226 233 231
165 165 167 159 158 150 140 139 136 134 130 120 129 136 135 129 127 119 112 103 103 105 108 106 96 80 57 50 80 50 21 22 33 10 329 285 262 247 221 217 212 213 233
170 167 167 164 162 163 156 144 132 124 124 122 123 122 139 133 136 130 124 119 114 108 96 94 110 103 65 45 108 99 45 3 2 10 347 299 286 273 232 222 212 208 214
163 170 171 163 162 158 142 123 109 90 83 96 115 134 150 143 140 132 134 128 125 121 120 113 124 128 123 67 64 136 142 200 298 338 1 9 346 313 268 241 219 215 211
165 167 164 157 157 153 148 151 150 152 161 176 165 158 148 145 142 140 136 137 137 135 136 141 125 129 133 131 84 59 102 145 147 348 335 350 342 307 291 272 252 229 219
160 164 164 151 155 155 158 158 154 153 149 135 132 142 147 138 144 146 143 145 146 146 146 134 122 123 126 142 147 132 105 79 92 140 221 320 339 322 296 275 273 255 235
150 150 149 153 158 159 160 159 159 157 152 149 154 162 166 161 158 166 159 157 159 157 158 152 140 132 127 127 130 137 147 149 159 147 164 225 286 305 311 285 256 250 244